Location: Big Sable Point
(44.0575°N, 86.5149°W)
Time: 21:54:28
(UTC-05:00)

N. Korean satellite - Visible Passes

Search period start: 21 February 2019 00:00
Search period end: 03 March 2019 00:00
Orbit: 456 x 510 km, 97.2° (Epoch: 21 February)

Date Brightness Start Highest point End Pass type
(mag) Time Alt. Az. Time Alt. Az. Time Alt. Az.
21 Feb 6.5 07:02:49 10° NNE 07:06:19 87° ESE 07:09:44 10° SSW visible
21 Feb 10.2 19:14:42 10° SW 19:16:45 14° W 19:18:48 10° WNW visible
22 Feb 8.1 06:38:15 10° NNE 06:41:31 39° E 06:44:45 10° SSE visible
22 Feb 9.2 18:48:43 10° SSW 18:51:52 27° W 18:55:00 10° NW visible
23 Feb 9.5 06:14:05 10° NE 06:16:39 19° E 06:19:12 10° SE visible
25 Feb 6.7 06:57:16 10° NNE 07:00:43 74° ESE 07:04:08 10° S visible
25 Feb 10.1 19:08:49 10° SW 19:11:09 16° W 19:13:28 10° NW visible
26 Feb 8.5 06:32:45 10° NNE 06:35:54 33° E 06:39:02 10° SSE visible
27 Feb 9.8 06:08:42 10° NE 06:11:00 17° E 06:13:18 10° SE visible
01 Mar 7.1 06:51:40 10° NNE 06:55:05 61° E 06:58:29 10° S visible
01 Mar 10.0 19:02:57 10° SW 19:05:30 18° W 19:08:03 10° NW visible
02 Mar 8.8 06:27:13 10° NE 06:30:15 28° E 06:33:16 10° SSE visible
